Latest Weather Observations for Moruya Airport

IDN60901

Issued at 12:15 pm EST Thursday 24 April 2014 (issued every 10 minutes, with the page automatically refreshed every 10 minutes)

About weather observations | Map of Canberra area stations | Latest observations for Canberra area | Other Formats
Station Details ID: 069148 Name: MORUYA AIRPORT AWS Lat: -35.90 Lon: 150.14 Height: 4.0 m
Data from the previous 72 hours. | See also: Recent months for locations in Aust Capital Territory
Date/Time
EST
Tmp

°C
App
Tmp
°C
Dew
Point
°C
Rel
Hum
%
Delta-T

°C
Wind Press
QNH
hPa
Press
MSL
hPa
Rain
since
9 am
mm
Dir
 
Spd
km/h
Gust
km/h
Spd
kts
Gust
kts
24/12:00pm 25.1 23.7 13.3 48 6.9 ENE 13 15 7 8 1010.5 1010.4 0.0
24/11:30am 24.4 22.5 13.0 49 6.6 NE 15 19 8 10 1010.8 - 0.0
24/11:00am 24.9 23.9 12.2 45 7.3 NNE 9 13 5 7 1011.0 - 0.0
24/10:30am 23.6 24.1 12.9 51 6.2 SW 2 7 1 4 1011.2 - 0.0
24/10:00am 21.2 20.7 12.6 58 4.9 N 7 11 4 6 1011.2 - 0.0
24/09:30am 20.6 19.3 12.6 60 4.5 N 11 15 6 8 1011.1 - 0.0
24/09:00am 20.4 18.9 11.9 58 4.7 N 11 15 6 8 1011.2 1011.1 0.0
24/08:30am 19.1 18.1 13.5 70 3.2 N 11 17 6 9 1011.1 - 0.0
24/08:00am 17.8 17.7 12.0 69 3.2 N 4 11 2 6 1010.6 - 0.0
24/07:30am 16.9 15.5 12.2 74 2.6 N 11 19 6 10 1010.3 - 0.0
24/07:00am 14.6 14.2 13.0 90 0.9 N 7 11 4 6 1010.1 - 0.0
24/06:30am 14.5 15.4 13.0 91 0.8 CALM 0 0 0 0 1009.9 - 0.0
24/06:00am 14.9 15.4 12.8 87 1.2 NW 2 7 1 4 1009.9 1009.8 0.0
24/05:30am 15.5 15.7 13.2 86 1.3 WNW 4 7 2 4 1010.0 - 0.0
24/05:00am 16.5 16.0 11.9 74 2.5 N 6 9 3 5 1010.1 - 0.0
24/04:30am 17.3 16.5 11.8 70 3.0 NNW 7 11 4 6 1010.1 - 0.0
24/04:00am 17.5 16.4 11.8 69 3.1 NNW 9 15 5 8 1010.1 - 0.0
24/03:30am 17.1 16.0 11.8 71 2.9 NNW 9 13 5 7 1010.1 - 0.0
24/03:00am 17.0 15.9 12.1 73 2.7 NW 9 15 5 8 1010.3 1010.2 0.0
24/02:30am 14.8 13.9 12.7 87 1.2 N 9 13 5 7 1010.7 - 0.0
24/02:00am 14.8 13.7 13.2 90 0.9 N 11 13 6 7 1010.9 - 0.0
24/01:30am 14.4 14.0 13.1 92 0.7 N 7 9 4 5 1011.3 - 0.0
24/01:00am 14.9 15.2 13.3 90 0.9 NNE 4 7 2 4 1011.5 - 0.0
24/12:30am 14.5 14.2 13.4 93 0.6 N 7 9 4 5 1011.6 - 0.0
24/12:00am 14.9 15.2 13.3 90 0.9 N 4 7 2 4 1011.9 1011.8 0.0
 
Date/Time
EST
Tmp

°C
App
Tmp
°C
Dew
Point
°C
Rel
Hum
%
Delta-T

°C
Wind Press
QNH
hPa
Press
MSL
hPa
Rain
since
9 am
mm
Dir
 
Spd
km/h
Gust
km/h
Spd
kts
Gust
kts
23/11:30pm 14.8 14.7 13.3 91 0.8 N 6 9 3 5 1012.0 - 0.0
23/11:00pm 14.3 15.3 13.3 94 0.6 CALM 0 0 0 0 1012.3 - 0.0
23/10:30pm 14.3 15.3 13.3 94 0.6 CALM 0 0 0 0 1012.6 - 0.0
23/10:00pm 14.5 14.3 13.5 94 0.6 NW 7 9 4 5 1012.7 - 0.0
23/09:30pm 14.7 14.5 13.6 93 0.6 N 7 9 4 5 1012.8 - 0.0
23/09:00pm 14.6 14.4 13.1 91 0.8 N 6 9 3 5 1013.0 1012.9 0.0
23/08:30pm 15.1 15.8 13.5 90 0.9 NW 2 7 1 4 1013.1 - 0.0
23/08:00pm 15.6 15.3 13.4 87 1.2 NNW 7 9 4 5 1013.1 - 0.0
23/07:30pm 16.1 15.9 14.6 91 0.9 NNW 9 11 5 6 1013.1 - 0.0
23/07:00pm 16.4 16.4 15.1 92 0.8 N 9 13 5 7 1013.1 - 0.0
23/06:30pm 16.5 16.9 14.7 89 1.0 N 6 9 3 5 1012.9 - 0.0
23/06:00pm 16.9 17.0 14.0 83 1.6 N 6 7 3 4 1012.8 1012.7 0.0
23/05:30pm 19.3 19.5 14.1 72 3.0 N 6 9 3 5 1012.6 - 0.0
23/05:00pm 21.7 21.7 14.1 62 4.4 NNW 7 11 4 6 1012.3 - 0.0
23/04:30pm 23.5 23.9 16.3 64 4.4 N 9 13 5 7 1012.1 - 0.0
23/04:00pm 23.2 22.6 16.7 67 4.0 N 15 24 8 13 1012.1 - 0.0
23/03:30pm 22.9 21.5 14.5 59 5.0 NE 15 19 8 10 1012.2 - 0.0
23/03:00pm 23.4 23.1 15.5 61 4.7 N 11 15 6 8 1012.3 1012.2 0.0
23/02:30pm 21.7 22.3 17.7 78 2.5 N 11 17 6 9 1012.5 - 0.0
23/02:00pm 20.9 21.7 17.3 80 2.2 N 9 13 5 7 1012.7 - 0.0
23/01:30pm 21.3 21.1 17.7 80 2.2 NNE 15 20 8 11 1013.2 - 0.0
23/01:00pm 21.7 20.6 17.3 76 2.7 NNE 19 26 10 14 1013.4 - 0.0
23/12:30pm 21.3 21.0 17.3 78 2.5 NE 15 19 8 10 1014.3 - 0.0
23/12:00pm 20.6 21.6 16.8 79 2.3 NNE 7 9 4 5 1015.1 1015.0 0.0
23/11:30am 20.6 20.7 14.5 68 3.6 ENE 7 11 4 6 1015.7 - 0.0
23/11:00am 21.9 21.7 13.5 59 4.8 ENE 7 11 4 6 1016.2 - 0.0
23/10:30am 19.9 20.0 13.8 68 3.5 SW 6 9 3 5 1016.7 - 0.0
23/10:00am 19.2 18.5 13.2 68 3.4 WSW 9 15 5 8 1017.2 - 0.0
23/09:30am 19.7 19.2 12.7 64 3.9 WSW 7 11 4 6 1017.0 - 0.0
23/09:00am 20.6 20.4 13.6 64 4.0 W 7 11 4 6 1016.8 1016.7 0.0
23/08:30am 18.8 18.2 13.6 72 3.0 WSW 9 15 5 8 1017.0 - 0.0
23/08:00am 18.3 17.6 13.2 72 2.9 W 9 13 5 7 1017.0 - 0.0
23/07:30am 16.2 16.0 12.9 81 1.8 WSW 6 9 3 5 1017.0 - 0.0
23/07:00am 15.1 14.1 12.2 83 1.6 W 9 15 5 8 1016.9 - 0.0
23/06:30am 14.7 13.9 11.8 83 1.6 SW 7 11 4 6 1016.4 - 0.0
23/06:00am 15.0 13.6 12.3 84 1.5 W 11 15 6 8 1016.4 1016.3 0.0
23/05:30am 15.4 14.3 12.0 80 1.8 WSW 9 11 5 6 1016.3 - 0.0
23/05:00am 15.4 14.0 12.2 81 1.7 W 11 15 6 8 1016.4 - 0.0
23/04:30am 14.9 14.4 12.6 86 1.3 W 7 11 4 6 1016.0 - 0.0
23/04:00am 15.4 14.8 12.2 81 1.7 W 7 9 4 5 1016.2 - 0.0
23/03:30am 15.3 14.0 12.4 83 1.6 W 11 15 6 8 1016.1 - 0.0
23/03:00am 15.4 14.3 12.0 80 1.8 W 9 15 5 8 1016.0 1015.9 0.0
23/02:30am 14.9 12.6 13.1 89 1.0 SW 17 20 9 11 1015.8 - 0.0
23/02:00am 14.5 14.1 12.4 87 1.1 W 6 9 3 5 1015.9 - 0.0
23/01:30am 13.7 14.2 12.8 94 0.5 WSW 2 7 1 4 1016.0 - 0.0
23/01:00am 13.6 14.6 13.3 98 0.2 CALM 0 0 0 0 1016.0 - 0.0
23/12:30am 13.5 13.7 13.2 98 0.2 W 4 7 2 4 1016.1 - 0.0
23/12:00am 13.3 14.2 13.0 98 0.2 CALM 0 0 0 0 1015.8 1015.7 0.0
 
Date/Time
EST
Tmp

°C
App
Tmp
°C
Dew
Point
°C
Rel
Hum
%
Delta-T

°C
Wind Press
QNH
hPa
Press
MSL
hPa
Rain
since
9 am
mm
Dir
 
Spd
km/h
Gust
km/h
Spd
kts
Gust
kts
22/11:30pm 13.4 13.0 13.1 98 0.2 WNW 7 9 4 5 1015.9 - 0.0
22/11:00pm 13.4 13.0 13.1 98 0.2 WSW 7 11 4 6 1016.1 - 0.0
22/10:30pm 13.7 13.4 13.4 98 0.2 NW 7 11 4 6 1016.0 - 0.0
22/10:00pm 13.6 12.8 13.0 96 0.3 W 9 11 5 6 1016.1 - 0.0
22/09:30pm 14.0 13.4 13.4 96 0.3 W 9 13 5 7 1016.0 - 0.0
22/09:00pm 14.7 14.2 13.7 94 0.6 WSW 9 13 5 7 1015.9 1015.8 0.0
22/08:30pm 14.7 14.3 13.1 90 0.9 WSW 7 9 4 5 1015.7 - 0.0
22/08:00pm 16.7 15.9 12.8 78 2.2 WSW 9 11 5 6 1015.6 - 0.0
22/07:30pm 18.3 17.3 13.4 73 2.8 WSW 11 13 6 7 1015.5 - 0.0
22/07:00pm 18.3 17.8 13.8 75 2.6 WSW 9 13 5 7 1015.3 - 0.0
22/06:30pm 19.2 18.1 14.2 73 2.9 WSW 13 15 7 8 1015.0 - 0.0
22/06:00pm 19.7 18.3 14.5 72 3.0 SW 15 20 8 11 1014.5 1014.4 0.0
22/05:30pm 20.3 19.9 15.3 73 3.0 SSW 11 20 6 11 1014.2 - 0.0
22/05:00pm 20.6 21.2 16.8 79 2.3 SSW 9 13 5 7 1013.8 - 0.0
22/04:30pm 21.4 21.7 17.0 76 2.7 S 11 17 6 9 1013.6 - 0.0
22/04:00pm 22.3 22.6 16.1 68 3.7 NNE 9 11 5 6 1013.1 - 0.0
22/03:30pm 22.6 22.5 15.9 66 4.0 NE 11 15 6 8 1013.0 - 0.0
22/03:00pm 22.9 22.6 15.5 63 4.4 NE 11 13 6 7 1013.0 1012.9 0.0
22/02:30pm 23.1 21.8 13.6 55 5.5 NNE 13 17 7 9 1012.9 - 0.0
22/02:00pm 23.0 21.3 12.3 51 6.1 NE 13 17 7 9 1013.0 - 0.0
22/01:30pm 23.2 21.1 12.5 51 6.1 NE 15 19 8 10 1013.2 - 0.0
22/01:00pm 23.2 21.4 12.2 50 6.2 NE 13 15 7 8 1013.5 - 0.0
22/12:30pm 22.9 21.5 12.2 51 6.1 ENE 11 13 6 7 1014.2 - 0.0
22/12:00pm 22.3 21.4 12.5 53 5.6 E 9 11 5 6 1014.5 1014.4 0.0
22/11:30am 22.2 22.2 14.1 60 4.7 E 7 11 4 6 1015.0 - 0.0
22/11:00am 21.0 20.5 13.9 64 4.1 E 9 11 5 6 1015.3 - 0.0
22/10:30am 20.4 19.8 13.4 64 4.0 NE 9 13 5 7 1015.5 - 0.0
22/10:00am 18.7 18.5 13.6 72 2.9 NE 7 11 4 6 1015.9 - 0.0
22/09:30am 16.7 17.4 12.3 75 2.4 CALM 0 0 0 0 1016.1 - 0.0
22/09:00am 15.4 17.1 15.1 98 0.2 CALM 0 4 0 2 1016.0 1015.9 0.0
22/08:30am 14.1 14.9 13.8 98 0.2 NNW 2 7 1 4 1016.0 - 0.0
22/08:00am 12.6 12.9 12.3 98 0.2 W 2 6 1 3 1016.0 - 0.0
22/07:30am 10.9 11.1 10.6 98 0.2 CALM 0 0 0 0 1016.0 - 0.0
22/07:00am 10.0 10.0 9.7 98 0.2 CALM 0 0 0 0 1015.9 - 0.0
22/06:47am 9.5 9.3 9.2 98 0.1 CALM 0 0 0 0 1015.9 - 0.0
22/06:30am 9.0 8.7 8.7 98 0.1 CALM 0 0 0 0 1015.8 - 0.0
22/06:20am 9.1 8.8 8.8 98 0.1 CALM 0 0 0 0 1015.9 - 0.0
22/06:00am 9.4 9.2 9.1 98 0.1 CALM 0 0 0 0 1015.9 1015.8 0.0
22/05:43am 9.3 9.1 9.0 98 0.1 CALM 0 0 0 0 1015.9 - 0.0
22/05:30am 9.2 9.0 8.9 98 0.1 CALM 0 0 0 0 1016.0 - 0.0
22/05:00am 9.6 9.5 9.3 98 0.1 CALM 0 0 0 0 1015.9 - 0.0
22/04:56am 9.5 9.3 9.2 98 0.1 CALM 0 0 0 0 1016.0 - 0.0
22/04:30am 10.1 10.1 9.8 98 0.2 CALM 0 0 0 0 1016.0 - 0.0
22/04:00am 10.0 10.0 9.7 98 0.2 CALM 0 0 0 0 1016.1 - 0.0
22/03:53am 9.9 9.8 9.6 98 0.1 CALM 0 0 0 0 1016.1 - 0.0
22/03:30am 9.8 9.7 9.5 98 0.1 CALM 0 0 0 0 1016.3 - 0.0
22/03:06am 10.1 10.1 9.8 98 0.2 CALM 0 0 0 0 1016.3 - 0.0
22/03:00am 10.1 10.1 9.8 98 0.2 CALM 0 4 0 2 1016.3 1016.2 0.0
22/02:30am 10.4 10.5 10.1 98 0.2 CALM 0 0 0 0 1016.7 - 0.0
22/02:00am 10.8 10.6 10.5 98 0.2 NW 2 6 1 3 1016.9 - 0.0
22/01:30am 11.2 10.2 10.9 98 0.2 NW 7 11 4 6 1017.2 - 0.0
22/01:00am 12.3 11.6 12.0 98 0.2 NW 7 11 4 6 1017.7 - 0.0
22/12:30am 12.5 11.5 12.2 98 0.2 NW 9 11 5 6 1018.0 - 0.0
22/12:00am 12.4 11.3 12.1 98 0.2 NW 9 13 5 7 1018.3 1018.2 0.0
 
Date/Time
EST
Tmp

°C
App
Tmp
°C
Dew
Point
°C
Rel
Hum
%
Delta-T

°C
Wind Press
QNH
hPa
Press
MSL
hPa
Rain
since
9 am
mm
Dir
 
Spd
km/h
Gust
km/h
Spd
kts
Gust
kts
21/11:30pm 12.9 12.0 12.6 98 0.2 NW 9 13 5 7 1018.4 - 0.0
21/11:00pm 12.1 11.3 11.8 98 0.2 NW 7 9 4 5 1018.6 - 0.0
21/10:30pm 12.4 11.3 12.1 98 0.2 NNW 9 11 5 6 1018.8 - 0.0
21/10:00pm 12.5 11.8 12.0 97 0.3 NW 7 9 4 5 1019.1 - 0.0
21/09:30pm 13.2 12.5 12.1 93 0.6 NW 7 11 4 6 1019.1 - 0.0
21/09:00pm 14.1 13.2 12.5 90 0.9 NW 9 13 5 7 1019.2 1019.1 0.0
21/08:30pm 14.2 13.6 12.2 88 1.1 NW 7 9 4 5 1019.1 - 0.0
21/08:00pm 15.8 14.8 12.4 80 1.9 NW 9 13 5 7 1019.1 - 0.0
21/07:30pm 16.2 14.5 12.4 78 2.1 N 13 17 7 9 1019.1 - 0.0
21/07:00pm 15.6 14.6 12.2 80 1.9 NNW 9 13 5 7 1019.2 - 0.0
21/06:30pm 15.8 15.2 12.4 80 1.9 NNW 7 11 4 6 1019.1 - 0.0
21/06:00pm 16.8 15.7 12.1 74 2.6 NNW 9 13 5 7 1018.9 1018.8 0.0
21/05:30pm 17.7 16.6 11.9 69 3.2 N 9 13 5 7 1018.6 - 0.0
21/05:00pm 18.9 15.9 11.9 64 3.9 NNE 19 22 10 12 1018.3 - 0.0
21/04:30pm 19.5 16.3 11.8 61 4.3 NNE 20 26 11 14 1018.3 - 0.0
21/04:00pm 19.4 16.2 11.9 62 4.2 NNE 20 26 11 14 1018.5 - 0.0
21/03:30pm 20.0 16.9 11.5 58 4.7 NE 19 24 10 13 1018.7 - 0.0
21/03:00pm 20.0 16.5 11.0 56 4.9 NE 20 24 11 13 1018.7 1018.6 0.0
21/02:30pm 20.9 16.7 11.0 53 5.4 NE 24 30 13 16 1018.5 - 0.0
21/02:00pm 20.3 16.6 9.5 50 5.7 NE 19 24 10 13 1018.8 - 0.0
21/01:30pm 20.4 16.8 9.9 51 5.6 NE 19 22 10 12 1019.0 - 0.0
21/01:00pm 20.4 17.2 9.9 51 5.6 ENE 17 22 9 12 1019.1 - 0.0
21/12:30pm 20.3 17.6 8.9 48 6.0 ENE 13 15 7 8 1019.6 - 0.0

Latest Capital City Observations: Canberra | Sydney | Melbourne | Brisbane | Adelaide | Perth | Hobart | Darwin

Other Formats:

Comma delimited format used in spreadsheet applications
http://www.bom.gov.au/fwo/IDN60903/IDN60903.95937.axf

JavaScript Object Notation format (JSON) in row-major order
http://www.bom.gov.au/fwo/IDN60903/IDN60903.95937.json